| time (UTC) | temp F | wind direction | speed MPH | gust MPH | rain 1hr in | rain 24hr in | rain mn in | humidity % | barometer mb |
| 20260902155008 | 65 | 307 | 3.0 | 6.0 | 0.00 | 0.04 | 0.04 | 96 | 1014.4 |
| 20260902154003 | 64 | 319 | 4.0 | 7.0 | 0.00 | 0.04 | 0.04 | 96 | 1014.5 |
| 20260902153008 | 64 | 313 | 4.0 | 8.0 | 0.00 | 0.04 | 0.04 | 97 | 1014.7 |
| 20260902152004 | 64 | 319 | 3.0 | 8.0 | 0.00 | 0.04 | 0.04 | 96 | 1014.6 |
| 20260902151217 | 64 | 319 | 4.0 | 7.0 | 0.00 | 0.04 | 0.04 | 97 | 1014.5 |
| 20260902150003 | 63 | 317 | 3.0 | 7.0 | 0.00 | 0.04 | 0.04 | 97 | 1014.8 |
| 20260902145003 | 63 | 306 | 3.0 | 11.0 | 0.00 | 0.04 | 0.04 | 97 | 1014.4 |
| 20260902144009 | 63 | 309 | 3.0 | 7.0 | 0.00 | 0.04 | 0.04 | 97 | 1014.9 |
| 20260902143003 | 63 | 309 | 3.0 | 6.0 | 0.00 | 0.04 | 0.04 | 96 | 1015.0 |
| 20260902142004 | 63 | 310 | 3.0 | 7.0 | 0.00 | 0.04 | 0.04 | 96 | 1014.9 |
| 20260902141006 | 63 | 317 | 3.0 | 7.0 | 0.00 | 0.04 | 0.04 | 96 | 1014.9 |
| 20260902140222 | 63 | 310 | 3.0 | 7.0 | 0.00 | 0.04 | 0.04 | 98 | 1014.9 |
| 20260902135008 | 62 | 311 | 3.0 | 6.0 | 0.00 | 0.04 | 0.04 | 97 | 1014.9 |
| 20260902134008 | 62 | 312 | 3.0 | 6.0 | 0.00 | 0.04 | 0.04 | 97 | 1015.1 |
| 20260902133008 | 62 | 306 | 3.0 | 6.0 | 0.00 | 0.04 | 0.04 | 96 | 1015.2 |
| 20260902132003 | 62 | 316 | 3.0 | 7.0 | 0.00 | 0.04 | 0.04 | 96 | 1015.3 |
| 20260902131008 | 61 | 319 | 3.0 | 6.0 | 0.00 | 0.04 | 0.04 | 96 | 1015.5 |
| 20260902130004 | 62 | 311 | 3.0 | 6.0 | 0.00 | 0.04 | 0.04 | 97 | 1015.7 |
| 20260902125008 | 61 | 311 | 3.0 | 8.0 | 0.00 | 0.04 | 0.04 | 97 | 1015.8 |
| 20260902124004 | 61 | 316 | 3.0 | 5.0 | 0.00 | 0.04 | 0.04 | 97 | 1015.9 |
| 20260902123003 | 60 | 318 | 2.0 | 6.0 | 0.01 | 0.04 | 0.04 | 97 | 1016.0 |
| 20260902122008 | 60 | 315 | 3.0 | 6.0 | 0.01 | 0.04 | 0.04 | 97 | 1016.2 |
| 20260902121008 | 60 | 315 | 3.0 | 6.0 | 0.01 | 0.04 | 0.04 | 97 | 1016.3 |
| 20260902120003 | 60 | 313 | 3.0 | 8.0 | 0.01 | 0.04 | 0.04 | 96 | 1016.4 |
| 20260902115003 | 59 | 314 | 3.0 | 7.0 | 0.01 | 0.04 | 0.04 | 96 | 1016.3 |
| 20260902114003 | 60 | 317 | 3.0 | 7.0 | 0.01 | 0.04 | 0.04 | 96 | 1016.6 |
| 20260902113003 | 59 | 311 | 3.0 | 7.0 | 0.00 | 0.04 | 0.04 | 96 | 1016.7 |
| 20260902112008 | 59 | 314 | 3.0 | 7.0 | 0.00 | 0.03 | 0.03 | 96 | 1016.8 |
| 20260902111223 | 59 | 307 | 2.0 | 6.0 | 0.00 | 0.03 | 0.03 | 96 | 1017.0 |
| 20260902110223 | 59 | 323 | 3.0 | 10.0 | 0.00 | 0.03 | 0.03 | 96 | 1017.0 |
| 20260902105008 | 59 | 307 | 3.0 | 8.0 | 0.00 | 0.03 | 0.03 | 95 | 1017.3 |
| 20260902104009 | 59 | 329 | 3.0 | 8.0 | 0.00 | 0.03 | 0.03 | 94 | 1017.3 |
| 20260902103223 | 59 | 321 | 4.0 | 11.0 | 0.00 | 0.03 | 0.03 | 94 | 1017.5 |
| 20260902102008 | 59 | 304 | 3.0 | 9.0 | 0.01 | 0.03 | 0.03 | 95 | 1017.7 |
| 20260902101008 | 58 | 310 | 3.0 | 9.0 | 0.02 | 0.03 | 0.03 | 96 | 1017.7 |
| 20260902100008 | 58 | 318 | 3.0 | 8.0 | 0.02 | 0.03 | 0.03 | 96 | 1017.7 |
| 20260902095008 | 57 | 322 | 3.0 | 8.0 | 0.02 | 0.03 | 0.03 | 95 | 1017.9 |
| 20260902094003 | 57 | 309 | 3.0 | 8.0 | 0.02 | 0.03 | 0.03 | 94 | 1018.1 |
| 20260902093223 | 57 | 319 | 3.0 | 8.0 | 0.02 | 0.03 | 0.03 | 93 | 1018.0 |
| 20260902092008 | 58 | 305 | 2.0 | 7.0 | 0.01 | 0.02 | 0.02 | 95 | 1018.3 |
| 20260902091218 | 58 | 319 | 3.0 | 9.0 | 0.00 | 0.02 | 0.02 | 94 | 1018.2 |
| 20260902090010 | 58 | 320 | 3.0 | 6.0 | 0.00 | 0.01 | 0.01 | 95 | 1018.3 |
| 20260902085003 | 58 | 317 | 3.0 | 7.0 | 0.00 | 0.01 | 0.01 | 96 | 1018.1 |
| 20260902084008 | 58 | 316 | 3.0 | 6.0 | 0.00 | 0.01 | 0.01 | 97 | 1018.2 |
| 20260902083009 | 58 | 313 | 2.0 | 7.0 | 0.00 | 0.01 | 0.01 | 97 | 1018.3 |
| 20260902082003 | 57 | 318 | 3.0 | 7.0 | 0.00 | 0.01 | 0.01 | 98 | 1018.1 |
| 20260902081003 | 57 | 317 | 3.0 | 7.0 | 0.00 | 0.01 | 0.01 | 98 | 1018.2 |
| 20260902080004 | 57 | 328 | 3.0 | 7.0 | 0.00 | 0.01 | 0.01 | 98 | 1018.3 |
| 20260902075222 | 57 | 329 | 3.0 | 7.0 | 0.00 | 0.01 | 0.01 | 98 | 1018.2 |
| 20260902074218 | 56 | 324 | 3.0 | 7.0 | 0.00 | 0.01 | 0.01 | 99 | 1018.2 |
| 20260902073008 | 56 | 320 | 3.0 | 7.0 | 0.00 | 0.01 | 0.01 | 99 | 1018.4 |
| 20260902072003 | 56 | 324 | 3.0 | 7.0 | 0.00 | 0.01 | 0.01 | 99 | 1018.2 |
| 20260902071003 | 55 | 316 | 3.0 | 7.0 | 0.00 | 0.01 | 0.01 | 98 | 1018.1 |
| 20260902070004 | 55 | 314 | 3.0 | 7.0 | 0.00 | 0.02 | 0.01 | 98 | 1018.3 |
| 20260902065003 | 55 | 313 | 3.0 | 7.0 | 0.00 | 0.01 | 0.01 | 98 | 1018.2 |
| 20260902064224 | 55 | 317 | 3.0 | 7.0 | 0.00 | 0.01 | 0.01 | 98 | 1018.1 |
| 20260902063008 | 55 | 304 | 2.0 | 6.0 | 0.00 | 0.01 | 0.01 | 98 | 1018.1 |
| 20260902062008 | 55 | 311 | 3.0 | 6.0 | 0.00 | 0.01 | 0.01 | 98 | 1018.0 |
| 20260902061223 | 55 | 310 | 3.0 | 7.0 | 0.00 | 0.01 | 0.01 | 98 | 1017.9 |
| 20260902060004 | 55 | 310 | 3.0 | 7.0 | 0.00 | 0.01 | 0.01 | 98 | 1018.1 |
| 20260902055008 | 55 | 321 | 3.0 | 8.0 | 0.00 | 0.01 | 0.01 | 98 | 1018.0 |
| 20260902054008 | 55 | 310 | 2.0 | 8.0 | 0.00 | 0.01 | 0.01 | 98 | 1017.9 |
| 20260902053003 | 55 | 313 | 3.0 | 6.0 | 0.01 | 0.01 | 0.01 | 98 | 1017.9 |
| 20260902052008 | 55 | 323 | 4.0 | 9.0 | 0.01 | 0.01 | 0.01 | 97 | 1018.0 |
| 20260902051223 | 55 | 312 | 3.0 | 9.0 | 0.01 | 0.01 | 0.01 | 97 | 1018.1 |
| 20260902050009 | 55 | 307 | 3.0 | 8.0 | 0.01 | 0.01 | 0.01 | 97 | 1018.1 |
| 20260902045008 | 55 | 324 | 3.0 | 10.0 | 0.00 | 0.01 | 0.00 | 96 | 1018.1 |
| 20260902044003 | 55 | 314 | 3.0 | 7.0 | 0.00 | 0.01 | 0.00 | 96 | 1018.1 |
| 20260902043008 | 55 | 290 | 3.0 | 8.0 | 0.00 | 0.00 | 0.00 | 96 | 1018.1 |
| 20260902042008 | 55 | 282 | 3.0 | 8.0 | 0.00 | 0.00 | 0.00 | 96 | 1018.1 |
| 20260902041008 | 55 | 318 | 4.0 | 10.0 | 0.00 | 0.00 | 0.00 | 96 | 1018.1 |
| 20260902040222 | 55 | 325 | 5.0 | 10.0 | 0.00 | 0.00 | 0.00 | 96 | 1018.2 |
| 20260902035003 | 55 | 330 | 3.0 | 8.0 | 0.00 | 0.00 | 0.00 | 96 | 1018.2 |
| 20260902034003 | 55 | 310 | 3.0 | 9.0 | 0.00 | 0.00 | 0.00 | 96 | 1018.3 |
| 20260902033003 | 55 | 304 | 3.0 | 8.0 | 0.00 | 0.00 | 0.00 | 96 | 1018.5 |
| 20260902032004 | 55 | 288 | 3.0 | 7.0 | 0.00 | 0.00 | 0.00 | 96 | 1018.5 |
| 20260902031218 | 55 | 338 | 5.0 | 14.0 | 0.00 | 0.00 | 0.00 | 96 | 1018.8 |
| 20260902030004 | 55 | 325 | 4.0 | 7.0 | 0.00 | 0.00 | 0.00 | 95 | 1018.4 |
| 20260902025008 | 55 | 306 | 4.0 | 8.0 | 0.00 | 0.00 | 0.00 | 95 | 1018.4 |
| 20260902024003 | 55 | 321 | 4.0 | 10.0 | 0.00 | 0.00 | 0.00 | 95 | 1018.5 |
| 20260902023004 | 55 | 291 | 3.0 | 7.0 | 0.00 | 0.00 | 0.00 | 95 | 1018.6 |
| 20260902022003 | 55 | 325 | 3.0 | 5.0 | 0.00 | 0.00 | 0.00 | 96 | 1018.9 |
| 20260902021003 | 55 | 337 | 4.0 | 8.0 | 0.00 | 0.00 | 0.00 | 97 | 1018.9 |
| 20260902020218 | 54 | 331 | 4.0 | 7.0 | 0.00 | 0.00 | 0.00 | 97 | 1019.2 |
| 20260902015008 | 54 | 324 | 3.0 | 8.0 | 0.00 | 0.00 | 0.00 | 98 | 1019.2 |
| 20260902014003 | 54 | 331 | 4.0 | 8.0 | 0.00 | 0.00 | 0.00 | 98 | 1019.3 |
| 20260902013217 | 54 | 333 | 4.0 | 8.0 | 0.00 | 0.00 | 0.00 | 98 | 1019.3 |
| 20260902012003 | 54 | 332 | 4.0 | 7.0 | 0.00 | 0.00 | 0.00 | 99 | 1019.2 |
| 20260902011008 | 54 | 325 | 3.0 | 6.0 | 0.00 | 0.00 | 0.00 | 98 | 1019.1 |
| 20260902010003 | 54 | 327 | 3.0 | 6.0 | 0.00 | 0.00 | 0.00 | 98 | 1019.4 |
| 20260902005003 | 54 | 325 | 3.0 | 6.0 | 0.00 | 0.00 | 0.00 | 98 | 1019.3 |
| 20260902004008 | 54 | 325 | 3.0 | 6.0 | 0.00 | 0.00 | 0.00 | 98 | 1019.2 |
| 20260902003011 | 54 | 321 | 3.0 | 6.0 | 0.00 | 0.00 | 0.00 | 98 | 1019.5 |
| 20260902002004 | 53 | 326 | 3.0 | 5.0 | 0.00 | 0.00 | 0.00 | 98 | 1019.6 |
| 20260902001006 | 54 | 326 | 3.0 | 7.0 | 0.00 | 0.00 | 0.00 | 98 | 1019.7 |
| 20260902000008 | 54 | 333 | 3.0 | 6.0 | 0.00 | 0.00 | 0.00 | 98 | 1019.4 |
| 20260901235008 | 53 | 326 | 3.0 | 5.0 | 0.00 | 0.00 | 0.00 | 98 | 1019.6 |
| 20260901234008 | 53 | 318 | 3.0 | 5.0 | 0.00 | 0.00 | 0.00 | 98 | 1019.7 |
| 20260901233009 | 53 | 323 | 2.0 | 4.0 | 0.00 | 0.00 | 0.00 | 98 | 1019.6 |
| 20260901232223 | 53 | 327 | 2.0 | 4.0 | 0.00 | 0.00 | 0.00 | 98 | 1019.7 |
| 20260901231003 | 53 | 331 | 2.0 | 4.0 | 0.00 | 0.00 | 0.00 | 98 | 1019.6 |
| 20260901230004 | 52 | 331 | 3.0 | 4.0 | 0.00 | 0.00 | 0.00 | 98 | 1019.8 |
| 20260901225004 | 53 | 332 | 3.0 | 4.0 | 0.00 | 0.00 | 0.00 | 98 | 1019.7 |
| 20260901224004 | 52 | 326 | 2.0 | 4.0 | 0.00 | 0.00 | 0.00 | 97 | 1019.8 |
| 20260901223006 | 52 | 323 | 2.0 | 3.0 | 0.00 | 0.00 | 0.00 | 97 | 1020.1 |
| 20260901222008 | 52 | 320 | 1.0 | 3.0 | 0.00 | 0.00 | 0.00 | 97 | 1019.8 |
| 20260901221006 | 52 | 317 | 2.0 | 3.0 | 0.00 | 0.00 | 0.00 | 96 | 1019.8 |
| 20260901220222 | 52 | 317 | 2.0 | 3.0 | 0.00 | 0.00 | 0.00 | 96 | 1019.8 |
| 20260901215008 | 52 | 318 | 2.0 | 3.0 | 0.00 | 0.00 | 0.00 | 95 | 1019.9 |
| 20260901214004 | 53 | 322 | 2.0 | 4.0 | 0.00 | 0.00 | 0.00 | 95 | 1020.1 |
| 20260901213222 | 53 | 320 | 2.0 | 4.0 | 0.00 | 0.00 | 0.00 | 95 | 1020.1 |
| 20260901212008 | 53 | 320 | 2.0 | 4.0 | 0.00 | 0.00 | 0.00 | 94 | 1020.2 |
| 20260901211003 | 54 | 324 | 2.0 | 4.0 | 0.00 | 0.00 | 0.00 | 94 | 1020.2 |
| 20260901210003 | 54 | 316 | 2.0 | 4.0 | 0.00 | 0.00 | 0.00 | 93 | 1020.2 |
| 20260901205008 | 54 | 319 | 2.0 | 4.0 | 0.00 | 0.00 | 0.00 | 92 | 1020.3 |
| 20260901204008 | 54 | 322 | 2.0 | 3.0 | 0.00 | 0.00 | 0.00 | 91 | 1020.0 |
| 20260901203008 | 55 | 321 | 3.0 | 7.0 | 0.00 | 0.00 | 0.00 | 91 | 1020.3 |
| 20260901202013 | 55 | 321 | 3.0 | 5.0 | 0.00 | 0.00 | 0.00 | 90 | 1020.1 |
| 20260901201008 | 55 | 321 | 3.0 | 5.0 | 0.00 | 0.00 | 0.00 | 89 | 1020.2 |
| 20260901200003 | 55 | 319 | 3.0 | 4.0 | 0.00 | 0.00 | 0.00 | 88 | 1020.3 |
| 20260901195008 | 56 | 319 | 3.0 | 6.0 | 0.00 | 0.00 | 0.00 | 87 | 1020.1 |
| 20260901194223 | 56 | 320 | 3.0 | 5.0 | 0.00 | 0.00 | 0.00 | 86 | 1020.2 |
| 20260901193008 | 56 | 322 | 3.0 | 4.0 | 0.00 | 0.00 | 0.00 | 85 | 1020.1 |
| 20260901192223 | 57 | 324 | 3.0 | 5.0 | 0.00 | 0.00 | 0.00 | 84 | 1019.9 |
| 20260901191217 | 57 | 323 | 3.0 | 7.0 | 0.00 | 0.00 | 0.00 | 84 | 1019.8 |
| 20260901190009 | 58 | 324 | 3.0 | 6.0 | 0.00 | 0.00 | 0.00 | 84 | 1019.9 |
| 20260901185003 | 58 | 317 | 3.0 | 6.0 | 0.00 | 0.00 | 0.00 | 84 | 1019.8 |
| 20260901184003 | 58 | 319 | 3.0 | 5.0 | 0.00 | 0.00 | 0.00 | 84 | 1019.9 |
| 20260901183223 | 58 | 315 | 3.0 | 7.0 | 0.00 | 0.00 | 0.00 | 84 | 1019.7 |
| 20260901182008 | 59 | 317 | 3.0 | 6.0 | 0.00 | 0.00 | 0.00 | 84 | 1019.7 |
| 20260901181217 | 59 | 317 | 3.0 | 5.0 | 0.00 | 0.00 | 0.00 | 86 | 1020.0 |
| 20260901180223 | 59 | 317 | 3.0 | 5.0 | 0.00 | 0.00 | 0.00 | 87 | 1019.9 |
| 20260901175440 | 59 | 314 | 3.0 | 7.0 | 0.00 | 0.00 | 0.00 | 87 | 1020.0 |
| 20260901174009 | 59 | 313 | 4.0 | 7.0 | 0.00 | 0.00 | 0.00 | 86 | 1020.1 |
| 20260901173008 | 59 | 314 | 3.0 | 7.0 | 0.00 | 0.00 | 0.00 | 87 | 1019.9 |
| 20260901172008 | 59 | 320 | 3.0 | 6.0 | 0.00 | 0.00 | 0.00 | 88 | 1019.8 |
| 20260901171003 | 59 | 323 | 3.0 | 6.0 | 0.00 | 0.00 | 0.00 | 89 | 1020.0 |
| 20260901170003 | 58 | 326 | 3.0 | 7.0 | 0.00 | 0.00 | 0.00 | 89 | 1020.3 |
| 20260901165004 | 58 | 324 | 4.0 | 9.0 | 0.00 | 0.00 | 0.00 | 88 | 1020.2 |
| 20260901164009 | 59 | 313 | 4.0 | 7.0 | 0.00 | 0.00 | 0.00 | 87 | 1020.0 |
| 20260901163218 | 59 | 321 | 3.0 | 8.0 | 0.00 | 0.00 | 0.00 | 85 | 1019.9 |
| 20260901162222 | 60 | 318 | 4.0 | 9.0 | 0.00 | 0.00 | 0.00 | 82 | 1019.9 |
| 20260901161008 | 62 | 316 | 5.0 | 11.0 | 0.00 | 0.00 | 0.00 | 76 | 1020.1 |
| 20260901160222 | 64 | 317 | 5.0 | 10.0 | 0.00 | 0.00 | 0.00 | 69 | 1019.9 |